Simultaneous Nadir Overpasses (SNOs) Predictions

Prediction of SNOs between AQUA and GOES-15 Satellite Orbit:

Table of predicted SNOs for the next 14.0 days since TLE Epoch: 1/28/2022
Index Date Time (AQUA) AQUA Lat,Lon GOES-15 Lat,Lon Distance(km) Time Diff (sec)
1 01/29/2022 21:58:45 0.61,-125.65 0.02,-128.32 304.08 80
2 01/30/2022 10:19:59 0.51,-130.80 -0.02,-128.30 284.47 80
3 02/01/2022 10:07:46 -0.11,-127.83 -0.02,-128.28 50.44 80
4 02/03/2022 09:55:33 -0.74,-124.86 -0.02,-128.25 385.52 80
5 02/03/2022 22:16:56 -0.39,-130.04 0.02,-128.26 203.15 80
6 02/05/2022 22:04:43 0.25,-127.08 0.02,-128.24 131.90 80
7 02/06/2022 10:25:58 0.87,-132.23 -0.02,-128.22 456.35 80
8 02/07/2022 21:52:30 0.90,-124.11 0.02,-128.21 466.71 80
9 02/08/2022 10:13:45 0.22,-129.26 -0.01,-128.19 121.66 80
10 02/10/2022 10:01:31 -0.38,-126.28 0.01,-128.16 212.88 80
11 02/10/2022 22:22:54 -0.74,-131.46 -0.01,-128.16 376.45 80
